Flight Track Log - Related Links

Times and Time Zones

All times are in EDT time to prevent confusion due to time zone crossing. See the UAL976 flight status page for this flight to view local times or setup timezone preferences in your user account.

Time Position Orientation Groundspeed Altitude Reporting Facility
EDT Latitude Longitude Course Direction KTS MPH feet Rate Location/Type
06:32PM 39.0147 -77.5801 339° North 267 307 2,700  Level FlightAware ADS-B (KJYO)
06:33PM 39.0170 -76.9487 72° East  Level FlightAware Approximate
06:33PM 39.0326 -77.5887 340° North 266 306 3,400  Level FlightAware ADS-B (KJYO)
06:33PM 39.0494 -77.5964 341° North 274 315 3,900 2,533 Climbing FlightAware ADS-B (KJYO)
06:33PM 39.0852 -77.6130 341° North 268 308 5,300 2,727 Climbing FlightAware ADS-B (KJYO)
06:34PM 39.1032 -77.6212 341° North 272 313 5,900 2,200 Climbing FlightAware ADS-B (KJYO)
06:34PM 39.1218 -77.6264 358° North 277 319 6,400 2,000 Climbing FlightAware ADS-B (KJYO)
06:34PM 39.1399 -77.6214 25° Northeast 288 331 6,900 1,800 Climbing FlightAware ADS-B (KJYO)
06:34PM 39.1544 -77.6075 50° Northeast 297 342 7,300 2,000 Climbing FlightAware ADS-B (KJYO)
06:35PM 39.1651 -77.5822 73° East 302 348 7,900 2,400 Climbing FlightAware ADS-B (KJYO)
06:35PM 39.1716 -77.5370 81° East 305 351 8,900 1,412 Climbing FlightAware ADS-B (KJYO)
06:36PM 39.1841 -77.4262 81° East 316 364 9,900 711 Climbing FlightAware ADS-B (KJYO)
06:36PM 39.1875 -77.3974 81° East 318 366 9,800  Descending FlightAware ADS-B (KDAA)
06:37PM 39.1878 -77.3613 99° East 318 366 9,900 140 Climbing FlightAware ADS-B (KDAA)
06:37PM 39.1771 -77.3169 109° East 322 371 9,900 545 Level FlightAware ADS-B (KDAA)
06:38PM 39.1605 -77.2574 109° East 352 405 10,400 1,075 Climbing FlightAware ADS-B (KDAA)
06:38PM 39.1412 -77.1865 108° East 377 434 11,100 1,455 Climbing FlightAware ADS-B (KJYO)
06:39PM 39.1051 -77.0457 101° East 407 468 12,800 1,565 Climbing FlightAware ADS-B (KDAA)
06:40PM 39.1002 -76.9731 88° East 420 483 13,500 1,900 Climbing FlightAware ADS-B (KDAA)
06:40PM 39.1055 -76.8944 84° East 422 486 14,700 2,129 Climbing FlightAware ADS-B (KDAA)
06:41PM 39.1110 -76.8177 84° East 426 490 15,700 1,862 Climbing FlightAware ADS-B (KDAA)
06:41PM 39.1159 -76.7515 84° East 431 496 16,500 1,846 Climbing FlightAware ADS-B (KDAA)
06:42PM 39.1193 -76.7020 84° East 434 499 17,300 1,814 Climbing FlightAware ADS-B (KDAA)
06:42PM 39.1238 -76.6376 84° East 439 505 17,800 1,535 Climbing FlightAware ADS-B
06:42PM 39.1283 -76.5721 85° East 445 512 18,400 1,552 Climbing FlightAware ADS-B
06:43PM 39.1342 -76.4846 84° East 448 516 19,300 1,475 Climbing FlightAware ADS-B
06:43PM 39.1394 -76.4106 85° East 455 524 19,900 1,400 Climbing FlightAware ADS-B
06:44PM 39.1438 -76.3457 85° East 459 528 20,700 1,400 Climbing FlightAware ADS-B
06:44PM 39.1509 -76.2463 84° East 464 534 21,300 1,368 Climbing FlightAware ADS-B
06:45PM 39.1590 -76.1644 82° East 465 535 22,000 1,532 Climbing FlightAware ADS-B
06:45PM 39.1642 -76.1183 82° East 469 540 22,500 1,224 Climbing FlightAware ADS-B
06:46PM 39.1719 -76.0502 82° East 468 539 23,000 545 Climbing FlightAware ADS-B
06:46PM 39.1815 -75.9658 81° East 468 539 23,000  Level FlightAware ADS-B
06:46PM 39.1890 -75.9201 73° East 467 537 23,000 935 Level FlightAware ADS-B
06:47PM 39.2638 -75.7864 45° Northeast 467 537 24,200 1,169 Climbing FlightAware ADS-B
06:48PM 39.3540 -75.6704 45° Northeast 475 547 25,300 1,091 Climbing FlightAware ADS-B
06:49PM 39.4519 -75.5437 45° Northeast 482 555 26,400 990 Climbing FlightAware ADS-B
06:50PM 39.5062 -75.4730 45° Northeast 489 563 26,900 879 Climbing FlightAware ADS-B (KPHL)
06:51PM 39.5649 -75.3962 45° Northeast 499 574 28,100 857 Climbing FlightAware ADS-B
06:53PM 39.7946 -75.0784 48° Northeast 511 588 29,500 857 Climbing FlightAware ADS-B (KPHL)
06:54PM 39.8924 -74.9392 48° Northeast 515 593 30,400 793 Climbing FlightAware ADS-B (KPHL)
06:55PM 39.9893 -74.8011 48° Northeast 520 598 31,100 732 Climbing FlightAware ADS-B (KPHL)
06:55PM 40.0216 -74.7502 54° Northeast 521 600 31,400 1,038 Climbing FlightAware ADS-B (KLGA)
06:56PM 40.0583 -74.6706 64° Northeast 521 600 32,000 933 Climbing FlightAware ADS-B (KLGA)
06:57PM 40.1121 -74.4915 69° East 522 601 32,800 587 Climbing FlightAware ADS-B (KLGA)
06:57PM 40.1253 -74.4457 69° East 528 608 32,900 255 Climbing FlightAware ADS-B (KLGA)
06:58PM 40.1521 -74.3521 70° East 529 609 33,000 140 Climbing FlightAware ADS-B
06:58PM 40.1752 -74.2711 69° East 531 611 33,000  Level FlightAware ADS-B (KLGA)
06:59PM 40.2016 -74.1777 69° East 529 609 33,000  Level FlightAware ADS-B (KLGA)
06:59PM 40.2241 -74.0980 69° East 529 609 33,000  Level FlightAware ADS-B (KLGA)
07:00PM 40.2488 -74.0100 70° East 528 608 33,000  Level FlightAware ADS-B (KSNC)
07:00PM 40.2762 -73.9121 69° East 527 606 33,000  Level FlightAware ADS-B (KLGA)
07:01PM 40.2986 -73.8319 70° East 526 605 33,000  Level FlightAware ADS-B (KLGA)
07:01PM 40.3276 -73.7278 70° East 527 606 33,000  Level FlightAware ADS-B (KLGA)
07:02PM 40.3526 -73.6376 70° East 528 608 33,000  Level FlightAware ADS-B (KLGA)
07:02PM 40.3770 -73.5491 70° East 529 609 33,000  Level FlightAware ADS-B (KLGA)
07:02PM 40.3898 -73.5027 70° East 530 610 33,000  Level FlightAware ADS-B (KSNC)
07:03PM 40.4187 -73.3976 70° East 531 611 33,000  Level FlightAware ADS-B (KSNC)
07:04PM 40.4519 -73.2761 70° East 532 612 33,000  Level FlightAware ADS-B (KLGA)
07:04PM 40.4765 -73.1858 70° East 533 613 33,000  Level FlightAware ADS-B (KLGA)
07:04PM 40.4917 -73.1301 70° East 534 615 33,000  Level FlightAware ADS-B (KSNC)
07:05PM 40.5231 -73.0139 70° East 536 617 33,000  Level FlightAware ADS-B (KSNC)
07:06PM 40.5517 -72.9077 70° East 537 618 33,000  Level FlightAware ADS-B (KLGA)
07:06PM 40.5755 -72.8192 70° East 538 619 33,000  Level FlightAware ADS-B (KLGA)
07:06PM 40.5885 -72.7704 71° East 539 620 33,000  Level FlightAware ADS-B (KSNC)
07:07PM 40.6188 -72.6568 71° East 540 621 33,000  Level FlightAware ADS-B (KSNC)
07:07PM 40.6227 -72.6422 70° East 539 620 33,000  Level FlightAware ADS-B (KLGA)
07:08PM 40.6537 -72.5255 71° East 540 621 33,000  Level FlightAware ADS-B (KSNC)
07:08PM 40.6638 -72.4871 70° East 539 620 33,000  Level FlightAware ADS-B (KLGA)
07:09PM 40.6946 -72.3705 70° East 540 621 33,000  Level FlightAware ADS-B (KLGA)
07:09PM 40.7125 -72.3021 71° East 543 625 33,000  Level FlightAware ADS-B (KSNC)
07:10PM 40.7374 -72.2071 71° East 545 627 33,000  Level FlightAware ADS-B (KSNC)
07:10PM 40.7690 -72.0859 71° East 547 629 33,000  Level FlightAware ADS-B (KLGA)
07:11PM 40.7852 -72.0235 71° East 547 629 33,000  Level FlightAware ADS-B (KLGA)
07:11PM 40.8147 -71.9096 71° East 548 631 33,000  Level FlightAware ADS-B (KSNC)
07:12PM 40.8353 -71.8297 71° East 548 631 33,000  Level FlightAware ADS-B (KSNC)
07:12PM 40.7852 -72.0235 71° East 548 631 33,000  Level FlightAware ADS-B (KLGA)
07:15PM 40.9862 -71.2351 73° East 544 626 33,000  Level FlightAware ADS-B (KASH)
07:15PM 41.0242 -71.0839 73° East 547 629 33,000  Level FlightAware ADS-B (KASH)
07:16PM 41.0463 -71.0112 60° Northeast 542 624 33,000  Level FlightAware ADS-B (KASH)
07:16PM 41.0970 -70.9138 47° Northeast 540 621 33,000  Level FlightAware ADS-B (KASH)
07:17PM 41.1768 -70.8291 32° Northeast 529 609 33,000  Level FlightAware ADS-B (KASH)
07:18PM 41.2983 -70.7289 32° Northeast 529 609 33,000  Level FlightAware ADS-B (KASH)
07:19PM 41.4047 -70.6410 32° Northeast 526 605 33,000  Level FlightAware ADS-B (KASH)
07:20PM 41.4915 -70.5693 32° Northeast 526 605 33,000  Level FlightAware ADS-B (KOWD)
07:21PM 41.6155 -70.4588 35° Northeast 528 608 33,000  Level FlightAware ADS-B (KOWD)
07:21PM 41.7151 -70.3653 35° Northeast 526 605 33,000  Level FlightAware ADS-B (KOWD)
07:22PM 41.8189 -70.2674 35° Northeast 524 603 33,000  Level FlightAware ADS-B (KBOS)
07:23PM 41.8835 -70.2061 36° Northeast 518 596 33,000  Level FlightAware ADS-B (KASH)
07:23PM 41.9437 -70.1489 36° Northeast 518 596 33,000  Level FlightAware ADS-B (KASH)
07:24PM 42.0052 -70.0903 36° Northeast 519 597 33,000  Level FlightAware ADS-B (KASH)
07:24PM 42.0667 -70.0317 36° Northeast 518 596 33,000  Level FlightAware ADS-B (KASH)
07:25PM 42.1512 -69.9507 36° Northeast 517 595 33,000  Level FlightAware ADS-B (KASH)
07:26PM 42.2064 -69.8979 36° Northeast 523 602 33,000  Level FlightAware ADS-B (KBOS)
07:26PM 42.2927 -69.8147 36° Northeast 523 602 33,000  Level FlightAware ADS-B (KBOS)
07:27PM 42.3616 -69.7482 36° Northeast 517 595 33,000  Level FlightAware ADS-B (KASH)
07:28PM 42.4454 -69.6671 36° Northeast 516 594 33,000  Level FlightAware ADS-B (KASH)
07:28PM 42.5088 -69.6054 36° Northeast 517 595 33,000  Level FlightAware ADS-B (KASH)
07:29PM 42.5700 -69.5458 36° Northeast 524 603 33,000  Level FlightAware ADS-B (KBOS)
07:29PM 42.6185 -69.4984 36° Northeast 524 603 33,000  Level FlightAware ADS-B (KBOS)
07:30PM 42.7246 -69.3945 36° Northeast 524 603 33,000  Level FlightAware ADS-B (KBOS)
07:31PM 42.7955 -69.3249 36° Northeast 518 596 33,000  Level FlightAware ADS-B (KASH)
07:31PM 42.8689 -69.2524 37° Northeast 518 596 33,000  Level FlightAware ADS-B (KASH)
07:32PM 42.9474 -69.1748 37° Northeast 519 597 33,000  Level FlightAware ADS-B (KASH)
07:33PM 43.0538 -69.0694 36° Northeast 526 605 33,000  Level FlightAware ADS-B
07:34PM 43.1551 -68.9685 36° Northeast 526 605 33,000  Level FlightAware ADS-B
07:34PM 43.2401 -68.8833 36° Northeast 528 608 33,000  Level FlightAware ADS-B
07:35PM 43.3157 -68.8074 36° Northeast 529 609 33,000  Level FlightAware ADS-B
07:36PM 43.3954 -68.7273 36° Northeast 531 611 33,000  Level FlightAware ADS-B
07:36PM 43.4720 -68.6497 36° Northeast 533 613 33,000  Level FlightAware ADS-B
07:37PM 43.5545 -68.5661 37° Northeast 534 615 33,000  Level FlightAware ADS-B
07:38PM 43.6344 -68.4847 37° Northeast 535 616 33,000  Level FlightAware ADS-B
07:38PM 43.7140 -68.4035 37° Northeast 535 616 33,000  Level FlightAware ADS-B
07:39PM 43.7927 -68.3230 37° Northeast 535 616 33,000  Level FlightAware ADS-B
07:40PM 43.8737 -68.2397 37° Northeast 536 617 33,000  Level FlightAware ADS-B
07:40PM 43.9522 -68.1586 37° Northeast 535 616 33,000  Level FlightAware ADS-B
07:41PM 44.0228 -68.0858 37° Northeast 534 615 33,000  Level FlightAware ADS-B
07:42PM 44.1107 -67.9945 37° Northeast 532 612 33,000  Level FlightAware ADS-B
07:42PM 44.1893 -67.9126 37° Northeast 534 615 33,000  Level FlightAware ADS-B
07:43PM 44.3086 -67.7879 37° Northeast 533 613 33,000  Level FlightAware ADS-B
07:44PM 44.3831 -67.7094 37° Northeast 533 613 33,000  Level FlightAware ADS-B
07:44PM 44.4440 -67.6452 37° Northeast 533 613 33,000  Level FlightAware ADS-B
07:45PM 44.5063 -67.5794 37° Northeast 534 615 33,000  Level FlightAware ADS-B
07:45PM 44.5605 -67.5220 37° Northeast 536 617 33,000  Level FlightAware ADS-B
07:46PM 44.6613 -67.4147 37° Northeast 537 618 33,000  Level FlightAware ADS-B
07:47PM 44.7405 -67.3302 37° Northeast 536 617 33,000  Level FlightAware ADS-B
07:48PM 44.8185 -67.2468 37° Northeast 536 617 33,000  Level FlightAware ADS-B
07:48PM 44.8655 -67.1962 39° Northeast 537 618 33,000  Level FlightAware ADS-B
07:49PM 44.9132 -67.1419 41° Northeast 537 618 33,000  Level FlightAware ADS-B (YSBK / BWU)
07:51PM 44.9815 -67.0599 41° Northeast 539 620 33,000  Level FlightAware ADS-B
07:53PM 45.3833 -66.5333 41° Northeast 540 621 33,000  Level Moncton Center
07:54PM 45.5000 -66.4000 39° Northeast 540 621 33,000  Level Moncton Center
07:55PM 45.6167 -66.2667 39° Northeast 540 621 33,000  Level Moncton Center
07:56PM 45.7333 -66.1167 42° Northeast 550 633 33,000  Level Moncton Center
07:57PM 45.8500 -65.9667 42° Northeast 550 633 33,000  Level Moncton Center
07:58PM 45.9500 -65.8167 46° Northeast 550 633 33,000  Level Moncton Center
07:59PM 46.0667 -65.6833 38° Northeast 550 633 33,000  Level Moncton Center
08:00PM 46.1833 -65.5167 45° Northeast 560 644 33,000  Level Moncton Center
08:01PM 46.3000 -65.3667 42° Northeast 560 644 33,000  Level Moncton Center
08:02PM 46.4333 -65.2167 38° Northeast 560 644 33,000  Level Moncton Center
08:03PM 46.5333 -65.0833 43° Northeast 560 644 33,000  Level Moncton Center
08:04PM 46.6667 -64.9167 41° Northeast 560 644 33,000  Level Moncton Center
08:05PM 46.7667 -64.7667 46° Northeast 560 644 33,000  Level Moncton Center
08:06PM 46.8833 -64.6000 44° Northeast 570 656 33,000  Level Moncton Center
08:07PM 47.0000 -64.4500 41° Northeast 570 656 33,000  Level Moncton Center
08:08PM 47.1167 -64.3000 41° Northeast 570 656 33,000  Level Moncton Center
08:09PM 47.2333 -64.1333 44° Northeast 570 656 33,000  Level Moncton Center
08:10PM 47.3500 -63.9833 41° Northeast 570 656 33,000  Level Moncton Center
08:11PM 47.4667 -63.8000 47° Northeast 570 656 33,000  Level Moncton Center
08:12PM 47.5833 -63.6500 41° Northeast 570 656 33,000  Level Moncton Center
08:13PM 47.7000 -63.4833 44° Northeast 570 656 33,000  Level Moncton Center
08:14PM 47.8167 -63.3333 41° Northeast 570 656 33,000  Level Moncton Center
08:15PM 47.9333 -63.1500 46° Northeast 570 656 33,000  Level Moncton Center
08:16PM 48.0500 -62.9667 46° Northeast 580 667 33,000  Level Moncton Center
08:17PM 48.1500 -62.8167 45° Northeast 580 667 33,000  Level Moncton Center
08:18PM 48.2667 -62.6333 46° Northeast 580 667 33,000  Level Moncton Center
08:19PM 48.3833 -62.4833 40° Northeast 580 667 33,000  Level Moncton Center
08:20PM 48.5167 -62.3000 42° Northeast 580 667 33,000  Level Moncton Center
08:21PM 48.6333 -62.1500 40° Northeast 580 667 33,000  Level Moncton Center
08:22PM 48.7500 -61.9667 46° Northeast 580 667 33,000  Level Moncton Center
08:23PM 48.8667 -61.7833 46° Northeast 590 679 33,000  Level Moncton Center
08:24PM 48.9667 -61.6167 48° Northeast 590 679 33,000  Level Moncton Center
08:25PM 49.0833 -61.4333 46° Northeast 580 667 33,000  Level Moncton Center
08:26PM 49.2000 -61.2500 46° Northeast 580 667 33,000  Level Moncton Center
08:27PM 49.3167 -61.0833 43° Northeast 590 679 33,000  Level Moncton Center
08:28PM 49.4333 -60.9000 46° Northeast 590 679 33,000  Level Moncton Center
08:29PM 49.5500 -60.7000 48° Northeast 590 679 33,000  Level Moncton Center
08:30PM 49.6667 -60.5500 40° Northeast 590 679 33,000  Level Moncton Center
08:31PM 49.7667 -60.3500 52° Northeast 590 679 33,000  Level Moncton Center
08:32PM 49.8833 -60.1667 45° Northeast 590 679 33,000  Level Moncton Center
08:33PM 50.0167 -59.9667 44° Northeast 590 679 33,000  Level Moncton Center
08:34PM 50.1167 -59.8000 47° Northeast 590 679 33,000  Level Moncton Center
08:35PM 50.2500 -59.6000 44° Northeast 600 690 33,000  Level Moncton Center
08:36PM 50.3500 -59.4167 49° Northeast 600 690 33,000  Level Moncton Center
08:37PM 50.4667 -59.2333 45° Northeast 600 690 33,000  Level Moncton Center
08:38PM 50.5833 -59.0500 45° Northeast 600 690 33,000  Level Moncton Center
08:39PM 50.6833 -58.8500 52° Northeast 600 690 33,000 100 Level Moncton Center
08:40PM 50.8000 -58.6500 47° Northeast 600 690 33,200 500 Climbing Moncton Center
08:41PM 50.9167 -58.4500 47° Northeast 600 690 34,000 400 Climbing Moncton Center
08:42PM 51.0333 -58.2500 47° Northeast 600 690 34,000  Level Moncton Center
08:43PM 51.1500 -58.0667 45° Northeast 580 667 34,000  Level Moncton Center
08:44PM 51.2500 -57.9000 46° Northeast 590 679 34,000  Level Moncton Center
08:45PM 51.3667 -57.6833 49° Northeast 610 702 34,000  Level Moncton Center
08:46PM 51.4667 -57.4833 51° Northeast 580 667 34,000  Level Moncton Center
08:47PM 51.5833 -57.2833 47° Northeast 610 702 34,000  Level Moncton Center
08:48PM 51.7000 -57.1000 44° Northeast 580 667 34,000  Level Moncton Center
08:49PM 51.8000 -56.9000 51° Northeast 590 679 34,000  Level Moncton Center
08:50PM 51.9000 -56.6833 53° Northeast 590 679 34,000  Level Moncton Center
08:51PM 52.0333 -56.4833 43° Northeast 580 667 34,000  Level Moncton Center
08:52PM 52.1333 -56.3000 48° Northeast 580 667 34,000  Level Moncton Center
08:53PM 52.2333 -56.0833 53° Northeast 580 667 34,000  Level Moncton Center
08:54PM 52.3333 -55.9000 48° Northeast 580 667 34,000  Level Moncton Center
08:55PM 52.4333 -55.6833 53° Northeast 580 667 34,000  Level Moncton Center
08:56PM 52.5000 -55.4500 65° Northeast 570 656 34,000  Level Moncton Center
08:57PM 52.5667 -55.2167 65° Northeast 570 656 34,000  Level Moncton Center
08:58PM 52.6333 -54.9833 65° Northeast 560 644 34,000  Level Moncton Center
08:59PM 52.7167 -54.7667 58° Northeast 550 633 34,000  Level Moncton Center
09:00PM 52.7667 -54.5333 70° East 560 644 34,000  Level Moncton Center
09:01PM 52.8333 -54.3000 65° Northeast 570 656 34,000  Level Moncton Center
09:02PM 52.9000 -54.0833 63° Northeast 540 621 34,000  Level Moncton Center
09:03PM 52.9667 -53.8500 65° Northeast 550 633 34,000  Level Moncton Center
09:04PM 53.0167 -53.6333 69° East 550 633 34,000  Level Gander Center
09:05PM 53.0833 -53.4000 64° Northeast 560 644 34,000  Level Gander Center
09:06PM 53.1333 -53.1667 70° East 560 644 34,000  Level Gander Center
09:08PM 53.2500 -52.6833 68° East 550 633 34,000  Level Gander Center
09:09PM 53.3167 -52.4500 64° Northeast 550 633 34,000  Level Gander Center
09:10PM 53.3833 -52.2500 61° Northeast 550 633 34,000  Level Gander Center
09:11PM 53.4500 -52.0000 66° East 550 633 34,000  Level Gander Center
09:12PM 53.5000 -51.7667 70° East 550 633 34,000  Level Gander Center
09:13PM 53.5667 -51.5167 66° East 550 633 34,000  Level Gander Center
09:14PM 53.6167 -51.2833 70° East 550 633 34,000  Level Gander Center
09:15PM 53.6833 -51.0667 62° Northeast 540 621 34,000  Level Gander Center
09:16PM 53.7333 -50.8333 70° East 540 621 34,000  Level Gander Center
09:17PM 53.8000 -50.5833 66° East 550 633 34,000  Level Gander Center
09:18PM 53.8833 -50.3667 57° Northeast 550 633 34,000  Level Gander Center
09:19PM 53.9167 -50.1167 77° East 540 621 34,000  Level Gander Center
09:20PM 53.9667 -49.8833 70° East 540 621 34,000 Level Gander Center
09:22PM 53.9865 -49.5047 85° East  Level FlightAware Approximate
09:29PM 54.0574 -47.8946 85° East  Level FlightAware Approximate
09:30PM 54.0658 -47.6641 86° East  Level FlightAware Approximate
09:31PM 54.0737 -47.4336 87° East  Level FlightAware Approximate
09:32PM 54.0812 -47.2030 87° East  Level FlightAware Approximate
09:33PM 54.0863 -46.9716 88° East  Level FlightAware Approximate
09:34PM 54.0901 -46.7407 88° East  Level FlightAware Approximate
09:35PM 54.0936 -46.5097 88° East  Level FlightAware Approximate
09:36PM 54.0965 -46.2787 89° East  Level FlightAware Approximate
09:37PM 54.0991 -46.0476 89° East  Level FlightAware Approximate
09:38PM 54.1003 -45.8166 90° East  Level FlightAware Approximate
09:39PM 54.1005 -45.5855 90° East  Level FlightAware Approximate
09:40PM 54.1003 -45.3544 90° East  Level FlightAware Approximate
09:41PM 54.0995 -45.1233 90° East  Level FlightAware Approximate
09:42PM 54.0984 -44.8922 90° East  Level FlightAware Approximate
09:43PM 54.0968 -44.6612 91° East  Level FlightAware Approximate
09:44PM 54.0948 -44.4301 91° East  Level FlightAware Approximate
09:45PM 54.0924 -44.1991 91° East  Level FlightAware Approximate
09:46PM 54.0894 -43.9682 91° East  Level FlightAware Approximate
09:47PM 54.0861 -43.7372 91° East  Level FlightAware Approximate
09:48PM 54.0828 -43.5063 91° East  Level FlightAware Approximate
09:49PM 54.0804 -43.2753 91° East  Level FlightAware Approximate
09:50PM 54.0775 -43.0444 91° East  Level FlightAware Approximate
09:51PM 54.0743 -42.8135 91° East  Level FlightAware Approximate
09:52PM 54.0705 -42.5827 91° East  Level FlightAware Approximate
09:53PM 54.0664 -42.3519 92° East  Level FlightAware Approximate
09:54PM 54.0619 -42.1211 92° East  Level FlightAware Approximate
09:55PM 54.0570 -41.8904 92° East  Level FlightAware Approximate
09:56PM 54.0516 -41.6598 92° East  Level FlightAware Approximate
09:57PM 54.0458 -41.4292 92° East  Level FlightAware Approximate
09:58PM 54.0396 -41.1986 93° East  Level FlightAware Approximate
09:59PM 54.0329 -40.9682 93° East  Level FlightAware Approximate
10:00PM 54.0258 -40.7378 93° East  Level FlightAware Approximate
10:01PM 54.0182 -40.5075 93° East  Level FlightAware Approximate
10:02PM 54.0102 -40.2770 93° East  Level FlightAware Approximate
10:03PM 54.0018 -40.0466 93° East  Level FlightAware Approximate
10:04PM 53.9887 -39.8169 96° East  Level FlightAware Approximate
10:05PM 53.9741 -39.5875 96° East  Level FlightAware Approximate
10:06PM 53.9591 -39.3583 96° East  Level FlightAware Approximate
10:07PM 53.9436 -39.1292 96° East  Level FlightAware Approximate
10:08PM 53.9278 -38.9003 97° East  Level FlightAware Approximate
10:09PM 53.9114 -38.6716 97° East  Level FlightAware Approximate
10:10PM 53.8947 -38.4431 97° East  Level FlightAware Approximate
10:11PM 53.8775 -38.2147 97° East  Level FlightAware Approximate
10:12PM 53.8599 -37.9865 97° East  Level FlightAware Approximate
10:13PM 53.8418 -37.7586 98° East  Level FlightAware Approximate
10:14PM 53.8233 -37.5308 98° East  Level FlightAware Approximate
10:15PM 53.8055 -37.3030 97° East  Level FlightAware Approximate
10:16PM 53.7879 -37.0752 97° East  Level FlightAware Approximate
10:17PM 53.7698 -36.8477 98° East  Level FlightAware Approximate
10:18PM 53.7513 -36.6203 98° East  Level FlightAware Approximate
10:19PM 53.7324 -36.3931 98° East  Level FlightAware Approximate
10:20PM 53.7130 -36.1662 98° East  Level FlightAware Approximate
10:21PM 53.6932 -35.9394 98° East  Level FlightAware Approximate
10:22PM 53.6730 -35.7129 98° East  Level FlightAware Approximate
10:23PM 53.6524 -35.4866 99° East  Level FlightAware Approximate
10:24PM 53.6313 -35.2605 99° East  Level FlightAware Approximate
10:25PM 53.6098 -35.0346 99° East  Level FlightAware Approximate
10:26PM 53.5876 -34.8091 100° East  Level FlightAware Approximate
10:27PM 53.5647 -34.5838 100° East  Level FlightAware Approximate
10:28PM 53.5414 -34.3588 100° East  Level FlightAware Approximate
10:29PM 53.5177 -34.1341 100° East  Level FlightAware Approximate
10:30PM 53.4935 -33.9096 100° East  Level FlightAware Approximate
10:31PM 53.4689 -33.6854 100° East  Level FlightAware Approximate
10:32PM 53.4440 -33.4614 101° East  Level FlightAware Approximate
10:33PM 53.4186 -33.2377 101° East  Level FlightAware Approximate
10:34PM 53.3927 -33.0143 101° East  Level FlightAware Approximate
10:35PM 53.3665 -32.7911 101° East  Level FlightAware Approximate
10:36PM 53.3399 -32.5682 101° East  Level FlightAware Approximate
10:37PM 53.3128 -32.3456 101° East  Level FlightAware Approximate
10:38PM 53.2853 -32.1233 102° East  Level FlightAware Approximate
10:39PM 53.2574 -31.9013 102° East  Level FlightAware Approximate
10:40PM 53.2291 -31.6795 102° East  Level FlightAware Approximate
10:41PM 53.2004 -31.4581 102° East  Level FlightAware Approximate
10:42PM 53.1712 -31.2369 102° East  Level FlightAware Approximate
10:43PM 53.1417 -31.0161 102° East  Level FlightAware Approximate
10:44PM 53.1118 -30.7955 103° East  Level FlightAware Approximate
10:45PM 53.0814 -30.5753 103° East  Level FlightAware Approximate
10:46PM 53.0507 -30.3554 103° East  Level FlightAware Approximate
10:47PM 53.0195 -30.1358 103° East  Level FlightAware Approximate
10:48PM 53.0027 -29.9142 87° East  Level FlightAware Approximate
10:49PM 53.0095 -29.6890 87° East  Level FlightAware Approximate
10:50PM 53.0159 -29.4638 87° East  Level FlightAware Approximate
10:51PM 53.0219 -29.2384 87° East  Level FlightAware Approximate
10:52PM 53.0274 -29.0131 88° East  Level FlightAware Approximate
10:53PM 53.0325 -28.7876 88° East  Level FlightAware Approximate
10:54PM 53.0394 -28.5623 87° East  Level FlightAware Approximate
10:55PM 53.0462 -28.3369 87° East  Level FlightAware Approximate
10:56PM 53.0527 -28.1114 87° East  Level FlightAware Approximate
10:57PM 53.0587 -27.8859 87° East  Level FlightAware Approximate
10:58PM 53.0642 -27.6603 88° East  Level FlightAware Approximate
10:59PM 53.0694 -27.4347 88° East  Level FlightAware Approximate
11:00PM 53.0741 -27.2090 88° East  Level FlightAware Approximate
11:01PM 53.0784 -26.9832 88° East  Level FlightAware Approximate
11:02PM 53.0822 -26.7575 88° East  Level FlightAware Approximate
11:03PM 53.0857 -26.5317 88° East  Level FlightAware Approximate
11:04PM 53.0887 -26.3058 89° East  Level FlightAware Approximate
11:05PM 53.0913 -26.0799 89° East  Level FlightAware Approximate
11:06PM 53.0934 -25.8540 89° East  Level FlightAware Approximate
11:07PM 53.0952 -25.6281 89° East  Level FlightAware Approximate
11:08PM 53.0965 -25.4021 89° East  Level FlightAware Approximate
11:09PM 53.0973 -25.1762 90° East  Level FlightAware Approximate
11:10PM 53.0978 -24.9502 90° East  Level FlightAware Approximate
11:11PM 53.0978 -24.7243 90° East  Level FlightAware Approximate
11:12PM 53.0974 -24.4983 90° East  Level FlightAware Approximate
11:13PM 53.0965 -24.2724 90° East  Level FlightAware Approximate
11:14PM 53.0953 -24.0464 90° East  Level FlightAware Approximate
11:15PM 53.0936 -23.8205 91° East  Level FlightAware Approximate
11:16PM 53.0915 -23.5946 91° East  Level FlightAware Approximate
11:17PM 53.0889 -23.3687 91° East  Level FlightAware Approximate
11:18PM 53.0859 -23.1428 91° East  Level FlightAware Approximate
11:19PM 53.0825 -22.9170 91° East  Level FlightAware Approximate
11:20PM 53.0787 -22.6912 92° East  Level FlightAware Approximate
11:21PM 53.0744 -22.4655 92° East  Level FlightAware Approximate
11:22PM 53.0698 -22.2398 92° East  Level FlightAware Approximate
11:23PM 53.0646 -22.0142 92° East  Level FlightAware Approximate
11:24PM 53.0591 -21.7886 92° East  Level FlightAware Approximate
11:25PM 53.0531 -21.5630 92° East  Level FlightAware Approximate
11:26PM 53.0467 -21.3376 93° East  Level FlightAware Approximate
11:27PM 53.0399 -21.1122 93° East  Level FlightAware Approximate
11:28PM 53.0327 -20.8869 93° East  Level FlightAware Approximate
11:29PM 53.0250 -20.6616 93° East  Level FlightAware Approximate
11:30PM 53.0169 -20.4365 93° East  Level FlightAware Approximate
11:31PM 53.0084 -20.2114 94° East  Level FlightAware Approximate
11:32PM 53.0012 -19.9865 81° East  Level FlightAware Approximate
11:33PM 53.0213 -19.7635 81° East  Level FlightAware Approximate
11:34PM 53.0409 -19.5403 82° East  Level FlightAware Approximate
11:35PM 53.0601 -19.3168 82° East  Level FlightAware Approximate
11:36PM 53.0788 -19.0932 82° East  Level FlightAware Approximate
11:37PM 53.0972 -18.8693 82° East  Level FlightAware Approximate
11:38PM 53.1151 -18.6453 82° East  Level FlightAware Approximate
11:39PM 53.1326 -18.4211 82° East  Level FlightAware Approximate
11:40PM 53.1497 -18.1967 83° East  Level FlightAware Approximate
11:41PM 53.1664 -17.9721 83° East  Level FlightAware Approximate
11:42PM 53.1826 -17.7474 83° East  Level FlightAware Approximate
11:43PM 53.1984 -17.5225 83° East  Level FlightAware Approximate
11:44PM 53.2141 -17.2975 83° East  Level FlightAware Approximate
11:45PM 53.2295 -17.0723 83° East  Level FlightAware Approximate
11:46PM 53.2443 -16.8470 84° East  Level FlightAware Approximate
11:47PM 53.2588 -16.6215 84° East  Level FlightAware Approximate
11:48PM 53.2728 -16.3959 84° East  Level FlightAware Approximate
11:49PM 53.2864 -16.1701 84° East  Level FlightAware Approximate
11:50PM 53.2996 -15.9442 84° East  Level FlightAware Approximate
11:51PM 53.3124 -15.7181 85° East  Level FlightAware Approximate
11:52PM 53.3247 -15.4919 85° East  Level FlightAware Approximate
11:53PM 53.3366 -15.2656 85° East  Level FlightAware Approximate
11:54PM 53.3481 -15.0392 85° East  Level FlightAware Approximate
11:55PM 53.3592 -14.8126 85° East  Level FlightAware Approximate
11:56PM 53.3700 -14.5859 85° East  Level FlightAware Approximate
11:57PM 53.3804 -14.3592 86° East  Level FlightAware Approximate
11:58PM 53.3903 -14.1323 86° East  Level FlightAware Approximate
11:59PM 53.3998 -13.9053 86° East  Level FlightAware Approximate
12:00AM 53.4096 -13.6783 86° East  Level FlightAware Approximate
12:00AM 53.2692 -11.4545 84° East 493 567 35,000  Level FlightAware ADS-B
12:01AM 53.4190 -13.4512 86° East  Level FlightAware Approximate
12:01AM 53.2781 -11.3068 84° East 493 567 35,000  Level FlightAware ADS-B
12:02AM 53.2871 -11.1543 84° East 493 567 35,000  Level FlightAware ADS-B
12:02AM 53.2956 -11.0050 85° East 493 567 35,000  Level FlightAware ADS-B
12:03AM 53.3034 -10.8674 85° East 493 567 35,000  Level FlightAware ADS-B
12:05AM 53.3245 -10.4754 85° East 493 567 35,000  Level FlightAware ADS-B
12:05AM 53.3327 -10.3155 85° East 493 567 35,000  Level FlightAware ADS-B
12:06AM 53.3406 -10.1584 85° East 493 567 35,000  Level FlightAware ADS-B
12:07AM 53.3479 -10.0105 85° East 493 567 35,000  Level FlightAware ADS-B
12:07AM 53.3551 -9.8605 86° East 492 566 35,000  Level FlightAware ADS-B
12:08AM 53.3611 -9.7319 86° East 492 566 35,000  Level FlightAware ADS-B
12:08AM 53.3678 -9.5830 86° East 491 565 35,000  Level FlightAware ADS-B
12:09AM 53.3746 -9.4300 86° East 492 566 35,000  Level FlightAware ADS-B
12:10AM 53.3797 -9.3113 86° East 492 566 35,000  Level FlightAware ADS-B (EIWF / WAT)
12:10AM 53.3853 -9.1767 86° East 492 566 35,000  Level FlightAware ADS-B
12:11AM 53.3896 -9.0717 86° East 492 566 35,000  Level FlightAware ADS-B (EIWF / WAT)
12:11AM 53.3957 -8.9185 86° East 490 564 35,000  Level FlightAware ADS-B (EIWF / WAT)
12:12AM 53.4010 -8.7693 86° East 490 564 35,000  Level FlightAware UK
12:12AM 53.4017 -8.7593 86° East 489 563 35,000  Level FlightAware ADS-B (EIWF / WAT)
12:13AM 53.4060 -8.6468 87° East 488 562 35,000  Level FlightAware ADS-B
12:13AM 53.4101 -8.5314 87° East 488 562 35,000  Level FlightAware ADS-B (EIWF / WAT)
12:14AM 53.4140 -8.4220 88° East 488 562 35,000  Level FlightAware ADS-B (EGPF / GLA)
12:14AM 53.4165 -8.3514 88° East 486 559 35,000  Level FlightAware ADS-B (EGPF / GLA)
12:14AM 53.4204 -8.2350 87° East 487 560 35,000  Level FlightAware ADS-B
12:15AM 53.4257 -8.0903 87° East 486 559 35,000  Level FlightAware UK
12:15AM 53.4266 -8.0455 88° East 486 559 35,000  Level FlightAware ADS-B (EGPF / GLA)
12:16AM 53.4289 -7.9723 88° East 486 559 35,000  Level FlightAware ADS-B (EGPF / GLA)
12:16AM 53.4312 -7.8973 88° East 486 559 35,000  Level FlightAware ADS-B (EGPF / GLA)
12:16AM 53.4335 -7.8215 88° East 486 559 35,000  Level FlightAware ADS-B (EGPF / GLA)
12:17AM 53.4356 -7.7490 88° East 486 559 35,000  Level FlightAware ADS-B (EGPF / GLA)
12:17AM 53.4379 -7.6678 87° East 488 562 35,000  Level FlightAware ADS-B
12:18AM 53.4428 -7.5041 87° East 488 562 35,000  Level FlightAware UK
12:18AM 53.4421 -7.5181 87° East 487 560 35,000  Level FlightAware ADS-B (EGPF / GLA)
12:18AM 53.4464 -7.3561 88° East 488 562 35,000  Level FlightAware ADS-B (EIDW / DUB)
12:19AM 53.4503 -7.2019 87° East 488 562 35,000  Level FlightAware ADS-B (EGBO)
12:19AM 53.4517 -7.1444 87° East 489 563 35,000  Level FlightAware ADS-B (EGBO)
12:20AM 53.4536 -7.0647 88° East 489 563 35,000  Level FlightAware ADS-B (EGPF / GLA)
12:20AM 53.4558 -6.9694 87° East 489 563 35,000  Level FlightAware ADS-B (EGBO)
12:21AM 53.4584 -6.8562 87° East 490 564 35,000  Level FlightAware ADS-B (EGBO)
12:21AM 53.4607 -6.7487 88° East 490 564 35,000  Level FlightAware ADS-B (EGBO)
12:22AM 53.4632 -6.6274 88° East 490 564 35,000  Level FlightAware ADS-B (EGBO)
12:22AM 53.4651 -6.5240 88° East 490 564 35,000  Level FlightAware ADS-B (EGBO)
12:22AM 53.4665 -6.4502 88° East 490 564 35,000  Level FlightAware ADS-B (EGAA / BFS)
12:23AM 53.4694 -6.3006 88° East 490 564 35,000  Level FlightAware UK
12:23AM 53.4693 -6.2918 88° East 490 564 35,000  Level FlightAware ADS-B (EGBO)
12:24AM 53.4713 -6.1717 88° East 490 564 35,000  Level FlightAware ADS-B (EGBO)
12:24AM 53.4722 -6.1162 89° East 489 563 35,000  Level FlightAware ADS-B (EGAA / BFS)
12:24AM 53.4734 -6.0375 90° East 489 563 35,000  Level FlightAware ADS-B
12:24AM 53.4746 -5.9548 90° East 488 562 35,000  Level FlightAware ADS-B
12:25AM 53.4756 -5.8755 89° East 488 562 35,000  Level FlightAware ADS-B
12:25AM 53.4772 -5.7553 89° East 488 562 35,000  Level FlightAware ADS-B
12:26AM 53.4783 -5.6631 89° East 489 563 35,000  Level FlightAware ADS-B
12:26AM 53.4793 -5.5323 90° East 488 562 35,000  Level FlightAware ADS-B
12:27AM 53.4780 -5.4298 92° East 487 560 35,000  Level FlightAware ADS-B
12:27AM 53.4753 -5.3267 92° East 486 559 35,000  Level FlightAware ADS-B
12:28AM 53.4717 -5.2012 92° East 486 559 35,000  Level FlightAware ADS-B
12:28AM 53.4684 -5.0923 92° East 486 559 35,000  Level FlightAware ADS-B
12:29AM 53.4648 -4.9780 93° East 486 559 35,000  Level FlightAware ADS-B
12:29AM 53.4619 -4.8874 93° East 487 560 35,000  Level FlightAware ADS-B
12:30AM 53.4582 -4.7796 92° East 486 559 35,000  Level FlightAware ADS-B (EGCD)
12:30AM 53.4539 -4.6479 92° East 486 559 35,000  Level FlightAware UK
12:30AM 53.4537 -4.6441 93° East 485 558 35,000  Level FlightAware ADS-B
12:31AM 53.4496 -4.5282 93° East 485 558 35,000  Level FlightAware ADS-B
12:31AM 53.4475 -4.4702 94° East 485 558 35,000  Level FlightAware ADS-B (EIDW / DUB)
12:31AM 53.4442 -4.3811 93° East 486 559 35,000  Level FlightAware ADS-B (EGCD)
12:32AM 53.4420 -4.3201 93° East 485 558 35,000  Level FlightAware ADS-B
12:32AM 53.4394 -4.2579 96° East 483 556 35,000  Level FlightAware ADS-B
12:33AM 53.4302 -4.1341 97° East 483 556 35,000  Level FlightAware ADS-B
12:33AM 53.4220 -4.0300 97° East 484 557 35,000  Level FlightAware ADS-B
12:34AM 53.4131 -3.9130 97° East 483 556 35,000  Level FlightAware ADS-B
12:34AM 53.4072 -3.8307 96° East 483 556 35,000  Level FlightAware ADS-B (EGCD)
12:34AM 53.4020 -3.7577 96° East 483 556 35,000  Level FlightAware ADS-B (KHMT)
12:35AM 53.3977 -3.6978 96° East 483 556 35,000  Level FlightAware ADS-B
12:35AM 53.3891 -3.5789 97° East 483 556 35,000  Level FlightAware ADS-B
12:35AM 53.3818 -3.4793 96° East 483 556 35,000  Level FlightAware ADS-B
12:36AM 53.3766 -3.4085 96° East 483 556 35,000  Level FlightAware ADS-B (EGCC / MAN)
12:36AM 53.3710 -3.3356 96° East 483 556 35,000  Level FlightAware ADS-B
12:37AM 53.3605 -3.1968 96° East 484 557 35,000  Level FlightAware UK
12:37AM 53.3596 -3.1860 96° East 483 556 35,000  Level FlightAware ADS-B
12:37AM 53.3552 -3.1293 97° East 483 556 35,000  Level FlightAware ADS-B (EGNX / EMA)
12:38AM 53.3464 -3.0160 97° East 484 557 35,000  Level FlightAware ADS-B (EGNX / EMA)
12:38AM 53.3375 -2.9038 97° East 484 557 35,000  Level FlightAware ADS-B (EGNX / EMA)
12:39AM 53.3287 -2.7945 97° East 485 558 35,000  Level FlightAware ADS-B (EGNX / EMA)
12:39AM 53.3195 -2.6820 97° East 484 557 35,000  Level FlightAware ADS-B (EGNX / EMA)
12:40AM 53.3106 -2.5726 97° East 483 556 35,000  Level FlightAware ADS-B (EGNX / EMA)
12:40AM 53.3013 -2.4613 97° East 483 556 35,000  Level FlightAware ADS-B (EGNX / EMA)
12:41AM 53.2920 -2.3515 97° East 482 555 35,000  Level FlightAware ADS-B (EGNX / EMA)
12:41AM 53.2826 -2.2410 98° East 482 555 35,000  Level FlightAware ADS-B (EGNX / EMA)
12:42AM 53.2731 -2.1301 98° East 482 555 35,000  Level FlightAware ADS-B (EGNX / EMA)
12:42AM 53.2616 -1.9991 98° East 483 556 35,000  Level FlightAware ADS-B (EGBO)
12:43AM 53.2519 -1.8892 98° East 483 556 35,000  Level FlightAware ADS-B (EGBO)
12:43AM 53.2430 -1.7885 98° East 481 554 35,000  Level FlightAware ADS-B (EGCD)
12:44AM 53.2352 -1.7016 98° East 481 554 35,000  Level FlightAware ADS-B (EGCD)
12:44AM 53.2276 -1.6179 98° East 481 554 35,000  Level FlightAware ADS-B
12:44AM 53.2223 -1.5603 98° East 482 555 35,000  Level FlightAware ADS-B (EGBO)
12:45AM 53.2119 -1.4468 98° East 482 555 35,000  Level FlightAware UK
12:45AM 53.2118 -1.4460 98° East 482 555 35,000  Level FlightAware ADS-B (EGBO)
12:45AM 53.2087 -1.4130 98° East 482 555 35,000  Level FlightAware ADS-B (KUAO)
12:45AM 53.2002 -1.3210 98° East 481 554 35,000  Level FlightAware ADS-B
12:46AM 53.1934 -1.2497 98° East 481 554 35,000  Level FlightAware ADS-B
12:46AM 53.1810 -1.1187 98° East 481 554 35,000  Level FlightAware ADS-B (EGBO)
12:47AM 53.1705 -1.0092 99° East 481 554 35,000  Level FlightAware ADS-B (EGBO)
12:47AM 53.1600 -0.9011 99° East 481 554 35,000  Level FlightAware ADS-B (EGBO)
12:47AM 53.1556 -0.8558 99° East 481 554 35,000  Level FlightAware ADS-B (EGSM)
12:48AM 53.1465 -0.7635 98° East 480 552 35,000  Level FlightAware ADS-B (EGCD)
12:49AM 53.1292 -0.5907 98° East 482 555 35,000  Level FlightAware UK
12:49AM 53.1289 -0.5853 99° East 482 555 35,000  Level FlightAware ADS-B (EGLF / FAB)
12:49AM 53.1188 -0.4852 100° East 482 555 35,000  Level FlightAware ADS-B
12:50AM 53.1058 -0.3574 100° East 482 555 35,000  Level FlightAware ADS-B
12:50AM 53.1050 -0.3519 100° East 482 555 35,000  Level FlightAware UK
12:50AM 53.0942 -0.2445 99° East 481 554 35,000  Level FlightAware ADS-B (EGBO)
12:51AM 53.0832 -0.1380 99° East 481 554 35,000  Level FlightAware ADS-B (EGBO)
12:51AM 53.0712 -0.0242 99° East 480 552 35,000  Level FlightAware ADS-B (EGBO)
12:52AM 53.0597 0.0850 99° East 479 551 35,000  Level FlightAware ADS-B (EGBO)
12:52AM 53.0554 0.1258 100° East 478 550 35,000  Level FlightAware ADS-B
12:52AM 53.0415 0.2554 100° East 477 549 35,000  Level FlightAware ADS-B
12:53AM 53.0281 0.3793 100° East 476 548 35,000  Level FlightAware ADS-B
12:54AM 53.0157 0.4921 100° East 476 548 35,000  Level FlightAware ADS-B
12:54AM 53.0045 0.5941 101° East 476 548 35,000  Level FlightAware ADS-B
12:55AM 52.9910 0.7153 100° East 475 547 35,000  Level FlightAware ADS-B
12:55AM 52.9849 0.7703 100° East 474 545 35,000  Level FlightAware ADS-B (EGNR / CEG)
12:55AM 52.9785 0.8268 100° East 475 547 35,000  Level FlightAware ADS-B (EGBO)
12:55AM 52.9705 0.8978 100° East 474 545 35,000  Level FlightAware ADS-B
12:56AM 52.9589 0.9995 101° East 475 547 35,000  Level FlightAware ADS-B
12:57AM 52.9430 1.1374 101° East 474 545 35,000  Level FlightAware ADS-B
12:57AM 52.9254 1.2889 101° East 474 545 35,000  Level FlightAware UK
12:58AM 52.9189 1.3449 101° East 475 547 35,000  Level FlightAware ADS-B
12:58AM 52.9043 1.4682 101° East 475 547 35,000  Level FlightAware ADS-B
12:58AM 52.8975 1.5247 101° East 475 547 35,000  Level FlightAware ADS-B (EGSR)
12:59AM 52.8776 1.6912 101° East 474 545 35,000  Level FlightAware ADS-B (EGLC / LCY)
01:00AM 52.8903 1.5858 101° East 474 545 35,000  Level FlightAware ADS-B (EGNX / EMA)
01:00AM 52.8486 1.9292 101° East 472 543 35,000  Level FlightAware ADS-B (EHGR / GLZ)
01:01AM 52.8329 2.0563 101° East 472 543 35,000  Level FlightAware UK
01:01AM 52.8268 2.1065 102° East 473 544 35,000  Level FlightAware ADS-B
01:02AM 52.8065 2.2685 102° East 472 543 35,000  Level FlightAware UK
01:02AM 52.8014 2.3085 102° East 472 543 35,000  Level FlightAware ADS-B (EGSR)
01:03AM 52.7828 2.4577 101° East 471 542 35,000  Level FlightAware ADS-B (EGSM)
01:03AM 52.7702 2.5705 100° East 471 542 35,000  Level FlightAware ADS-B
01:04AM 52.7541 2.7129 100° East 470 541 35,000  Level FlightAware UK
01:04AM 52.7456 2.7874 100° East 468 539 35,000  Level FlightAware ADS-B (EHGR / GLZ)
01:05AM 52.7312 2.9101 101° East 470 541 35,000  Level FlightAware ADS-B (EGSM)
01:05AM 52.7219 2.9881 100° East 467 537 35,000  Level FlightAware ADS-B
01:06AM 52.7145 3.0500 100° East 466 536 35,000  Level FlightAware ADS-B
01:07AM 52.6987 3.1821 101° East 467 537 35,000  Level FlightAware ADS-B
01:07AM 52.6815 3.3243 101° East 468 539 35,000  Level FlightAware ADS-B
01:08AM 52.6674 3.4392 101° East 468 539 35,000  Level FlightAware ADS-B
01:08AM 52.6538 3.5499 101° East 467 537 35,000  Level FlightAware ADS-B
01:08AM 52.6448 3.6222 101° East 466 536 35,000  Level FlightAware ADS-B
01:09AM 52.6394 3.6653 102° East 468 539 35,000  Level FlightAware ADS-B (EGLF / FAB)
01:09AM 52.6198 3.8237 102° East 468 539 35,000  Level FlightAware UK
01:10AM 52.6143 3.8653 101° East 466 536 35,000  Level FlightAware ADS-B
01:10AM 52.6015 3.9664 101° East 466 536 35,000  Level FlightAware ADS-B
01:11AM 52.5913 4.0460 101° East 465 535 35,000  Level FlightAware ADS-B
01:11AM 52.5687 4.2210 102° East 465 535 35,000  Level FlightAware ADS-B (EGSM)
01:12AM 52.5556 4.3222 102° East 464 534 35,000  Level FlightAware ADS-B (EHGR / GLZ)
01:12AM 52.5417 4.4279 102° East 463 533 35,000  Level FlightAware ADS-B
01:13AM 52.5263 4.5446 102° East 463 533 35,000  Level FlightAware ADS-B (EHGR / GLZ)
01:13AM 52.5129 4.6510 102° East 462 532 35,000  Level FlightAware UK
01:13AM 52.5117 4.6541 102° East 461 531 35,000  Level FlightAware ADS-B
01:14AM 52.4930 4.7928 102° East 459 528 35,000  Level FlightAware ADS-B
01:15AM 52.4795 4.8926 102° East 458 527 35,000  Level FlightAware ADS-B
01:15AM 52.4563 5.0571 102° East 456 525 35,000  Level FlightAware UK
01:16AM 52.4525 5.0899 102° East 457 526 35,000 -100 Level FlightAware ADS-B
01:16AM 52.4252 5.2568 102° East 456 525 34,900  Descending FlightAware UK
01:17AM 52.4249 5.2895 102° East 454 522 35,000  Climbing FlightAware ADS-B
01:17AM 52.4000 5.4588 102° East 454 522 34,900  Descending FlightAware UK
01:18AM 52.3957 5.4968 102° East 453 521 35,000 214 Climbing FlightAware ADS-B
01:18AM 52.3889 5.5452 103° East 454 522 35,000  Level FlightAware ADS-B
01:18AM 52.3731 5.6562 102° East 452 520 35,000  Level FlightAware ADS-B
01:19AM 52.3606 5.7429 102° East 453 521 35,000  Level FlightAware ADS-B
01:19AM 52.3529 5.7967 103° East 455 524 35,000  Level FlightAware ADS-B
01:20AM 52.3452 5.8494 103° East 455 524 35,000  Level FlightAware ADS-B
01:20AM 52.3268 5.9755 103° East 455 524 35,000  Level FlightAware ADS-B
01:21AM 52.3082 6.1024 103° East 455 524 35,000  Level FlightAware ADS-B (EHVK / UDE)
01:21AM 52.2939 6.1991 103° East 455 524 35,000  Level FlightAware ADS-B (EHVK / UDE)
01:22AM 52.2801 6.2921 103° East 455 524 35,000  Level FlightAware ADS-B (EHVK / UDE)
01:22AM 52.2708 6.3550 103° East 453 521 35,000  Level FlightAware ADS-B (EHGR / GLZ)
01:22AM 52.2633 6.4045 103° East 455 524 35,000  Level FlightAware ADS-B (EHVK / UDE)
01:22AM 52.2564 6.4510 104° East 455 524 35,000  Level FlightAware ADS-B
01:23AM 52.2490 6.4999 103° East 455 524 35,000  Level FlightAware ADS-B (EHVK / UDE)
01:23AM 52.2337 6.5998 103° East 455 524 35,000  Level FlightAware ADS-B (EHVK / UDE)
01:24AM 52.2184 6.7003 104° East 454 522 35,000  Level FlightAware ADS-B (EHVK / UDE)
01:24AM 52.2085 6.7656 103° East 453 521 35,000  Level FlightAware ADS-B
01:25AM 52.1897 6.8883 104° East 455 524 35,000  Level FlightAware ADS-B (EHVK / UDE)
01:25AM 52.1768 6.9710 104° East 457 526 35,000  Level FlightAware ADS-B (EHVK / UDE)
01:25AM 52.1636 7.0554 104° East 457 526 35,000  Level FlightAware ADS-B
01:26AM 52.1435 7.1832 104° East 458 527 35,000  Level FlightAware ADS-B
01:27AM 52.1248 7.3015 104° East 459 528 35,000  Level FlightAware ADS-B
01:27AM 52.1113 7.3866 105° East 461 531 35,000  Level FlightAware ADS-B
01:28AM 52.0873 7.5362 105° East 463 533 35,000  Level FlightAware ADS-B
01:28AM 52.1636 7.0554 104° East 454 522 35,000  Level FlightAware ADS-B (EBUL)
01:28AM 52.0679 7.6558 105° East 464 534 35,000  Level FlightAware ADS-B
01:29AM 52.0522 7.7528 105° East 466 536 35,000  Level FlightAware ADS-B
01:29AM 52.1636 7.0554 104° East 454 522 35,000  Level FlightAware ADS-B (EBUL)
01:30AM 52.0203 7.9474 104° East 466 536 35,000  Level FlightAware ADS-B (EHGR / GLZ)
01:30AM 52.0014 8.0618 105° East 469 540 35,000  Level FlightAware ADS-B
01:31AM 51.9890 8.1358 105° East 471 542 35,000  Level FlightAware ADS-B
01:31AM 51.9671 8.2667 105° East 473 544 35,000  Level FlightAware ADS-B
01:32AM 51.9412 8.4205 105° East 476 548 35,000  Level FlightAware ADS-B
01:33AM 51.9208 8.5400 105° East 476 548 35,000  Level FlightAware ADS-B
01:33AM 51.9091 8.6571 96° East 477 549 35,000  Level FlightAware ADS-B (EDDB / SXF)
01:34AM 51.9025 8.7673 95° East 477 549 35,000  Level FlightAware ADS-B
01:34AM 51.8955 8.8882 95° East 477 549 35,000  Level FlightAware ADS-B
01:35AM 51.8899 8.9912 95° East 479 551 35,000  Level FlightAware ADS-B
01:35AM 51.9168 8.5670 105° East 475 547 35,000  Level FlightAware ADS-B
01:36AM 51.8756 9.2158 103° East 482 555 35,000  Level FlightAware ADS-B
01:37AM 51.9168 8.5670 105° East 475 547 35,000  Level FlightAware ADS-B
01:38AM 51.8017 9.6178 108° East 481 554 35,000  Level FlightAware ADS-B (EDDB / SXF)
01:39AM 51.7715 9.7706 108° East 482 555 35,000  Level FlightAware ADS-B (EDDB / SXF)
01:39AM 51.7438 9.9100 108° East 484 557 35,000  Level FlightAware ADS-B (EDDB / SXF)
01:40AM 51.7240 10.0085 108° East 484 557 35,000  Level FlightAware ADS-B (EDDB / SXF)
01:41AM 51.6607 10.3211 108° East 484 557 35,000  Level FlightAware ADS-B (EDDB / SXF)
01:42AM 51.6312 10.4654 108° East 484 557 35,000  Level FlightAware ADS-B (EDDB / SXF)
01:43AM 51.5752 10.7358 109° East 480 552 35,000  Level FlightAware ADS-B (EDDB / SXF)
01:44AM 51.5460 10.8754 109° East 479 551 35,000  Level FlightAware ADS-B (EDDB / SXF)
01:45AM 51.5204 10.9971 109° East 477 549 35,000  Level FlightAware ADS-B (EDDB / SXF)
01:45AM 51.4910 11.1356 109° East 476 548 35,000  Level FlightAware ADS-B (EDDB / SXF)
01:46AM 51.4500 11.3280 109° East 476 548 35,000  Level FlightAware ADS-B
01:47AM 51.4193 11.4703 109° East 474 545 35,000  Level FlightAware ADS-B (EDDB / SXF)
01:48AM 51.4094 11.5163 109° East 473 544 35,000  Level FlightAware ADS-B
01:48AM 51.3643 11.7234 109° East 473 544 35,000  Level FlightAware ADS-B
01:49AM 51.3388 11.8391 109° East 473 544 35,000  Level FlightAware ADS-B
01:49AM 51.3154 11.9454 109° East 472 543 35,000  Level FlightAware ADS-B
01:50AM 51.2932 12.0457 110° East 472 543 35,000  Level FlightAware ADS-B
01:50AM 51.2715 12.1427 110° East 472 543 35,000  Level FlightAware ADS-B
01:51AM 51.2464 12.2391 114° Southeast 471 542 35,000  Level FlightAware ADS-B
01:52AM 51.2225 12.3201 116° Southeast 471 542 35,000  Level FlightAware ADS-B (ETSE)
01:52AM 51.1630 12.5060 116° Southeast 471 542 35,000  Level FlightAware ADS-B (LKKB)
01:53AM 51.1315 12.6022 118° Southeast 470 541 35,000  Level FlightAware ADS-B (KMTJ)
01:53AM 51.1218 12.6315 118° Southeast 470 541 35,000  Level FlightAware ADS-B (KMTJ)
01:54AM 51.0659 12.7998 118° Southeast 470 541 35,000  Level FlightAware ADS-B
01:54AM 51.0321 12.9022 118° Southeast 470 541 35,000  Level FlightAware ADS-B
01:55AM 50.9875 13.0372 118° Southeast 470 541 35,000  Level FlightAware ADS-B
01:56AM 50.9570 13.1291 118° Southeast 470 541 35,000  Level FlightAware ADS-B
01:56AM 50.9260 13.2220 116° Southeast 471 542 35,000  Level FlightAware ADS-B (LKKB)
01:57AM 50.8943 13.3168 118° Southeast 471 542 35,000  Level FlightAware ADS-B
01:57AM 50.8580 13.4260 117° Southeast 472 543 35,000  Level FlightAware ADS-B (LKKB)
01:58AM 50.8586 13.4234 118° Southeast 472 543 35,000  Level FlightAware ADS-B (KMTJ)
01:58AM 50.8240 13.5260 118° Southeast 472 543 35,000  Level FlightAware ADS-B (LKKB)
01:58AM 50.7850 13.6400 118° Southeast 471 542 35,000  Level FlightAware ADS-B (LKKB)
01:59AM 50.7938 13.6151 118° Southeast 470 541 35,000  Level FlightAware ADS-B (KMTJ)
02:00AM 50.7190 13.8340 118° Southeast 471 542 35,000  Level FlightAware ADS-B (LKKB)
02:00AM 50.7301 13.8023 118° Southeast 471 542 35,000  Level FlightAware ADS-B (KMTJ)
02:00AM 50.6880 13.9240 118° Southeast 471 542 35,000  Level FlightAware ADS-B (LKKB)
02:00AM 50.6796 13.9494 118° Southeast 471 542 35,000  Level FlightAware ADS-B (KMTJ)
02:01AM 50.6570 14.0150 118° Southeast 471 542 35,000  Level FlightAware ADS-B (LKKB)
02:01AM 50.6250 14.1070 118° Southeast 472 543 35,000  Level FlightAware ADS-B (LKKB)
02:01AM 50.6116 14.1465 119° Southeast 471 542 35,000  Level FlightAware ADS-B (KMTJ)
02:02AM 50.5870 14.2180 118° Southeast 472 543 35,000  Level FlightAware ADS-B (LKKB)
02:02AM 50.5560 14.3070 118° Southeast 473 544 35,000  Level FlightAware ADS-B (LKKB)
02:03AM 50.5240 14.3970 118° Southeast 474 545 35,000  Level FlightAware ADS-B (LKKB)
02:03AM 50.4920 14.4890 118° Southeast 474 545 35,000  Level FlightAware ADS-B (LKKB)
02:04AM 50.4610 14.5780 118° Southeast 474 545 35,000  Level FlightAware ADS-B (LKKB)
02:04AM 50.4230 14.6840 118° Southeast 476 548 35,000  Level FlightAware ADS-B (LKKB)
02:05AM 50.3910 14.7760 119° Southeast 475 547 35,000  Level FlightAware ADS-B (LKKB)
02:05AM 50.3520 14.8840 119° Southeast 477 549 35,000  Level FlightAware ADS-B (LKKB)
02:06AM 50.3140 14.9930 119° Southeast 477 549 35,000  Level FlightAware ADS-B (LKKB)
02:06AM 50.3444 14.9065 119° Southeast 476 548 35,000  Level FlightAware ADS-B (EDDB / SXF)
02:07AM 50.2760 15.0990 119° Southeast 478 550 35,000  Level FlightAware ADS-B (LKKB)
02:07AM 50.2430 15.1900 119° Southeast 478 550 35,000  Level FlightAware ADS-B (LKKB)
02:08AM 50.2050 15.2950 119° Southeast 477 549 35,000  Level FlightAware ADS-B (LKKB)
02:08AM 50.2038 15.2976 120° Southeast 477 549 35,000  Level FlightAware ADS-B (EDDB / SXF)
02:09AM 50.1504 15.4447 119° Southeast 474 545 35,000  Level FlightAware ADS-B (CAD4 / YZZ)
02:09AM 50.1330 15.4930 119° Southeast 479 551 35,000  Level FlightAware ADS-B (LKKB)
02:09AM 50.1030 15.5740 119° Southeast 479 551 35,000  Level FlightAware ADS-B (LKKB)
02:10AM 50.0671 15.6721 119° Southeast 476 548 35,000 91 Level FlightAware ADS-B (CAD4 / YZZ)
02:10AM 50.0310 15.7690 119° Southeast 480 552 35,100 789 Climbing FlightAware ADS-B (LKKB)
02:11AM 49.9857 15.8926 120° Southeast 477 549 36,000 1,324 Climbing FlightAware ADS-B (CAD4 / YZZ)
02:11AM 49.9550 15.9750 118° Southeast 474 545 36,600 1,071 Climbing FlightAware ADS-B (LKKB)
02:12AM 49.9220 16.0650 119° Southeast 472 543 37,000 533 Climbing FlightAware ADS-B (LKKB)
02:12AM 49.9133 16.0870 120° Southeast 471 542 37,000  Level FlightAware ADS-B
02:13AM 49.8830 16.1690 120° Southeast 473 544 37,000  Level FlightAware ADS-B (LKKB)
02:13AM 49.8995 16.1241 120° Southeast 473 544 37,000  Level FlightAware ADS-B
02:14AM 49.8110 16.3600 120° Southeast 474 545 37,000  Level FlightAware ADS-B (LKKB)
02:14AM 49.7770 16.4490 120° Southeast 475 547 37,000  Level FlightAware ADS-B (LKKB)
02:15AM 49.7350 16.5600 120° Southeast 475 547 37,000  Level FlightAware ADS-B (LKKB)
02:15AM 49.7050 16.6400 120° Southeast 477 549 37,000  Level FlightAware ADS-B (LKKB)
02:16AM 49.6620 16.7500 120° Southeast 479 551 37,000  Level FlightAware ADS-B (LKKB)
02:16AM 49.6290 16.8360 120° Southeast 479 551 37,000  Level FlightAware ADS-B (LKKB)
02:17AM 49.5920 16.9330 119° Southeast 480 552 37,000  Level FlightAware ADS-B (LKKB)
02:17AM 49.5610 17.0140 119° Southeast 480 552 37,000  Level FlightAware ADS-B (LKKB)
02:18AM 49.5150 17.1310 119° Southeast 480 552 37,000  Level FlightAware ADS-B (LKKB)
02:18AM 49.5964 16.9217 301° West 521 600 37,000  Level FlightAware ADS-B
02:19AM 49.4390 17.3270 121° Southeast 480 552 37,000  Level FlightAware ADS-B (LKKB)
02:20AM 49.3980 17.4320 121° Southeast 480 552 37,000  Level FlightAware ADS-B (LKKB)
02:21AM 49.3456 17.5640 121° Southeast 480 552 37,000  Level FlightAware ADS-B
02:21AM 49.3098 17.6545 121° Southeast 480 552 37,000  Level FlightAware ADS-B
02:22AM 49.2758 17.7398 121° Southeast 480 552 37,000  Level FlightAware ADS-B
02:22AM 49.2430 17.8210 North 457 526 37,000  Level FlightAware ADS-B (LKKB)
02:23AM 49.1910 17.9500 121° Southeast 480 552 37,000  Level FlightAware ADS-B (LKKB)
02:23AM 49.1389 18.0690 125° Southeast 480 552 37,000  Level FlightAware ADS-B
02:24AM 49.1050 18.1440 124° Southeast 480 552 37,000  Level FlightAware ADS-B (LKKB)
02:25AM 49.0586 18.2426 126° Southeast 480 552 37,000  Level FlightAware ADS-B
02:25AM 49.0033 18.3600 126° Southeast 479 551 37,000  Level FlightAware ADS-B (CAD4 / YZZ)
02:26AM 48.9612 18.4492 126° Southeast 479 551 37,000  Level FlightAware ADS-B (CAD4 / YZZ)
02:26AM 48.9222 18.5315 126° Southeast 479 551 37,000  Level FlightAware ADS-B (CAD4 / YZZ)
02:27AM 48.8815 18.6173 126° Southeast 479 551 37,000  Level FlightAware ADS-B
02:27AM 48.8360 18.7126 126° Southeast 479 551 37,000  Level FlightAware ADS-B
02:28AM 48.7868 18.8159 126° Southeast 480 552 37,000  Level FlightAware ADS-B (CAD4 / YZZ)
02:28AM 48.7675 18.8561 125° Southeast 480 552 37,000  Level FlightAware ADS-B (LZKZ / KSC)
02:29AM 48.7486 18.8958 126° Southeast 481 554 37,000  Level FlightAware ADS-B (CAD4 / YZZ)
02:29AM 48.7317 18.9311 125° Southeast 480 552 37,000  Level FlightAware ADS-B (LZKZ / KSC)
02:29AM 48.7112 18.9737 126° Southeast 480 552 37,000  Level FlightAware ADS-B (CAD4 / YZZ)
02:29AM 48.6904 19.0170 125° Southeast 480 552 37,000  Level FlightAware ADS-B (LZKZ / KSC)
02:30AM 48.6671 19.0655 126° Southeast 480 552 37,000  Level FlightAware ADS-B (CAD4 / YZZ)
02:30AM 48.6262 19.1502 126° Southeast 480 552 37,000  Level FlightAware ADS-B (CAD4 / YZZ)
02:31AM 48.5763 19.2533 126° Southeast 479 551 37,000  Level FlightAware ADS-B
02:31AM 48.5368 19.3347 126° Southeast 478 550 37,000  Level FlightAware ADS-B (CAD4 / YZZ)
02:32AM 48.4939 19.4226 126° Southeast 476 548 37,000  Level FlightAware ADS-B (LZKZ / KSC)
02:32AM 48.4565 19.4990 126° Southeast 475 547 37,000  Level FlightAware ADS-B (LZKZ / KSC)
02:33AM 48.4161 19.5812 126° Southeast 474 545 37,000  Level FlightAware ADS-B (LZKZ / KSC)
02:33AM 48.3966 19.6210 126° Southeast 475 547 37,000  Level FlightAware ADS-B
02:34AM 48.3425 19.7310 127° Southeast 475 547 37,000  Level FlightAware ADS-B (CAD4 / YZZ)
02:34AM 48.2974 19.8244 125° Southeast 477 549 37,000  Level FlightAware ADS-B
02:35AM 48.2514 19.9367 120° Southeast 478 550 37,000  Level FlightAware ADS-B (CAD4 / YZZ)
02:35AM 48.2318 19.9883 119° Southeast 478 550 37,000  Level FlightAware ADS-B (LZKZ / KSC)
02:36AM 48.1988 20.0779 118° Southeast 477 549 37,000  Level FlightAware ADS-B (LZKZ / KSC)
02:36AM 48.1676 20.1637 118° Southeast 477 549 37,000  Level FlightAware ADS-B (LZKZ / KSC)
02:37AM 48.1362 20.2502 118° Southeast 476 548 37,000  Level FlightAware ADS-B (LZKZ / KSC)
02:37AM 48.1075 20.3286 118° Southeast 475 547 37,000  Level FlightAware ADS-B (LZKZ / KSC)
02:38AM 48.0723 20.4243 118° Southeast 474 545 37,000  Level FlightAware ADS-B (LZKZ / KSC)
02:38AM 48.0410 20.5090 118° Southeast 473 544 37,000  Level FlightAware ADS-B (LZKZ / KSC)
02:39AM 48.0106 20.5907 119° Southeast 472 543 37,000  Level FlightAware ADS-B (LZKZ / KSC)
02:39AM 47.9801 20.6722 119° Southeast 469 540 37,000  Level FlightAware ADS-B (CAD4 / YZZ)
02:40AM 47.9474 20.7596 119° Southeast 470 541 37,000  Level FlightAware ADS-B (LZKZ / KSC)
02:40AM 47.9146 20.8464 119° Southeast 470 541 37,000  Level FlightAware ADS-B (LZKZ / KSC)
02:41AM 47.8813 20.9348 119° Southeast 470 541 37,000  Level FlightAware ADS-B (LZKZ / KSC)
02:41AM 47.8504 21.0161 119° Southeast 468 539 37,000  Level FlightAware ADS-B (LZKZ / KSC)
02:42AM 47.8224 21.0898 119° Southeast 468 539 37,000  Level FlightAware ADS-B (LZKZ / KSC)
02:42AM 47.7884 21.1787 119° Southeast 469 540 37,000  Level FlightAware ADS-B (LZKZ / KSC)
02:43AM 47.7557 21.2642 119° Southeast 469 540 37,000  Level FlightAware ADS-B (LZKZ / KSC)
02:43AM 47.7225 21.3508 119° Southeast 469 540 37,000  Level FlightAware ADS-B (LZKZ / KSC)
02:44AM 47.7072 21.3907 119° Southeast 468 539 37,000  Level FlightAware ADS-B (LZKZ / KSC)
02:44AM 47.6642 21.5020 119° Southeast 468 539 37,000  Level FlightAware ADS-B (LZKZ / KSC)
02:44AM 47.6438 21.5545 119° Southeast 469 540 37,000  Level FlightAware ADS-B (LZKZ / KSC)
02:45AM 47.6268 21.5985 120° Southeast 470 541 37,000  Level FlightAware ADS-B
02:46AM 47.5767 21.7239 122° Southeast 470 541 37,000  Level FlightAware ADS-B (LZKZ / KSC)
02:46AM 47.5234 21.8413 125° Southeast 471 542 37,000  Level FlightAware ADS-B (LRCL / CLJ)
02:47AM 47.4796 21.9328 126° Southeast 472 543 37,000  Level FlightAware ADS-B (LRCL / CLJ)
02:48AM 47.4195 22.0558 126° Southeast 471 542 37,000  Level FlightAware ADS-B (LRCL / CLJ)
02:48AM 47.3740 22.1484 126° Southeast 471 542 37,000  Level FlightAware ADS-B (LRCL / CLJ)
02:49AM 47.3179 22.2624 126° Southeast 471 542 37,000  Level FlightAware ADS-B (LRCL / CLJ)
02:50AM 47.2710 22.3575 126° Southeast 470 541 37,000  Level FlightAware ADS-B (LRCL / CLJ)
02:50AM 47.2157 22.4693 126° Southeast 471 542 37,000  Level FlightAware ADS-B (LRCL / CLJ)
02:51AM 47.1655 22.5708 126° Southeast 470 541 37,000  Level FlightAware ADS-B (LRCL / CLJ)
02:52AM 47.1134 22.6757 126° Southeast 468 539 37,000  Level FlightAware ADS-B (LRCL / CLJ)
02:52AM 47.0627 22.7774 126° Southeast 466 536 37,000  Level FlightAware ADS-B (LRCL / CLJ)
02:53AM 47.0118 22.8793 126° Southeast 466 536 37,000  Level FlightAware ADS-B (LRCL / CLJ)
02:54AM 46.9625 22.9772 126° Southeast 466 536 37,000  Level FlightAware ADS-B (LRCL / CLJ)
02:54AM 46.9107 23.0799 126° Southeast 467 537 37,000  Level FlightAware ADS-B (LRCL / CLJ)
02:55AM 46.8584 23.1833 126° Southeast 468 539 37,000  Level FlightAware ADS-B (LRCL / CLJ)
02:56AM 46.8072 23.2843 127° Southeast 468 539 37,000  Level FlightAware ADS-B (LRCL / CLJ)
02:56AM 46.7556 23.3856 127° Southeast 466 536 37,000  Level FlightAware ADS-B (LRCL / CLJ)
02:57AM 46.7066 23.4814 127° Southeast 465 535 37,000  Level FlightAware ADS-B (LRCL / CLJ)
02:58AM 46.6560 23.5800 127° Southeast 467 537 37,000  Level FlightAware ADS-B (LRCL / CLJ)
02:58AM 46.6002 23.6880 127° Southeast 465 535 37,000  Level FlightAware ADS-B (LRCL / CLJ)
02:59AM 46.5495 23.7861 127° Southeast 465 535 37,000  Level FlightAware ADS-B (LRCL / CLJ)
03:00AM 46.4968 23.8873 127° Southeast 463 533 37,000  Level FlightAware ADS-B (LRCL / CLJ)
03:00AM 46.4463 23.9846 127° Southeast 461 531 37,000  Level FlightAware ADS-B (LRCL / CLJ)
03:01AM 46.3992 24.0747 127° Southeast 458 527 37,000  Level FlightAware ADS-B (LRCL / CLJ)
03:02AM 46.3448 24.1784 127° Southeast 455 524 37,000  Level FlightAware ADS-B (LRCL / CLJ)
03:02AM 46.2948 24.2733 127° Southeast 455 524 37,000  Level FlightAware ADS-B (LRCL / CLJ)
03:03AM 46.2408 24.3756 127° Southeast 454 522 37,000  Level FlightAware ADS-B (LRCL / CLJ)
03:04AM 46.1920 24.4675 127° Southeast 454 522 37,000  Level FlightAware ADS-B (LRCL / CLJ)
03:04AM 46.1388 24.5676 128° Southeast 455 524 37,000  Level FlightAware ADS-B (LRCL / CLJ)
03:05AM 46.0930 24.6535 128° Southeast 456 525 37,000  Level FlightAware ADS-B (LRCL / CLJ)
03:06AM 46.0382 24.7558 128° Southeast 456 525 37,000  Level FlightAware ADS-B (LRCL / CLJ)
03:06AM 45.9871 24.8509 128° Southeast 456 525 37,000  Level FlightAware ADS-B (LRCL / CLJ)
03:07AM 45.9366 24.9445 128° Southeast 457 526 37,000  Level FlightAware ADS-B (LRCL / CLJ)
03:15AM 45.3055 26.0892 129° Southeast 474 545 37,000  Level FlightAware ADS-B (EIWF / WAT)
03:16AM 45.2179 26.2444 129° Southeast 476 548 37,000  Level FlightAware ADS-B (EIWF / WAT)
03:17AM 45.1631 26.3413 129° Southeast 478 550 37,000  Level FlightAware ADS-B (EIWF / WAT)
03:17AM 45.1068 26.4402 129° Southeast 480 552 37,000  Level FlightAware ADS-B (EIWF / WAT)
03:18AM 45.0499 26.5400 129° Southeast 481 554 37,000  Level FlightAware ADS-B (EIWF / WAT)
03:19AM 44.9953 26.6354 129° Southeast 482 555 37,000  Level FlightAware ADS-B (EIWF / WAT)
03:19AM 44.9412 26.7297 129° Southeast 486 559 37,000  Level FlightAware ADS-B (EIWF / WAT)
03:20AM 44.8805 26.8349 129° Southeast 491 565 37,000  Level FlightAware ADS-B (EIWF / WAT)
03:21AM 44.8267 26.9278 129° Southeast 493 567 37,000  Level FlightAware ADS-B (EIWF / WAT)
03:21AM 44.7747 27.0175 129° Southeast 495 570 37,000  Level FlightAware ADS-B (EIWF / WAT)
03:24AM 44.6100 27.4015 121° Southeast  Level Estimated
03:25AM 44.5395 27.5643 121° Southeast  Level Estimated
03:26AM 44.4687 27.7267 121° Southeast  Level Estimated
03:27AM 44.3978 27.8886 121° Southeast  Level Estimated
03:28AM 44.3266 28.0502 122° Southeast  Level Estimated
03:29AM 44.2552 28.2114 122° Southeast  Level Estimated
03:30AM 44.1836 28.3721 122° Southeast  Level Estimated
03:31AM 44.1117 28.5325 122° Southeast  Level Estimated
03:32AM 44.0396 28.6925 122° Southeast  Level Estimated
03:33AM 43.9674 28.8521 122° Southeast  Level Estimated
03:34AM 43.8948 29.0114 122° Southeast  Level Estimated
03:35AM 43.8220 29.1704 122° Southeast  Level Estimated
03:36AM 43.7489 29.3291 122° Southeast  Level Estimated
03:37AM 43.6757 29.4874 123° Southeast  Level Estimated
03:38AM 43.6021 29.6452 123° Southeast  Level Estimated
03:39AM 43.5284 29.8027 123° Southeast  Level Estimated
03:40AM 43.4545 29.9599 123° Southeast  Level Estimated
03:41AM 43.3804 30.1166 123° Southeast  Level Estimated
03:42AM 43.3060 30.2729 123° Southeast  Level Estimated
03:43AM 43.2314 30.4289 123° Southeast  Level Estimated
03:44AM 43.1567 30.5845 123° Southeast  Level Estimated
03:45AM 43.0817 30.7397 123° Southeast  Level Estimated
03:46AM 43.0065 30.8945 124° Southeast  Level Estimated
03:47AM 42.9312 31.0487 124° Southeast  Level Estimated
03:48AM 42.8557 31.2026 124° Southeast  Level Estimated
03:49AM 42.7799 31.3561 124° Southeast  Level Estimated
03:50AM 42.7040 31.5092 124° Southeast  Level Estimated
03:51AM 42.6279 31.6619 124° Southeast  Level Estimated
03:52AM 42.5515 31.8143 124° Southeast  Level Estimated
03:53AM 42.4750 31.9663 124° Southeast  Level Estimated
03:54AM 42.3983 32.1179 124° Southeast  Level Estimated
03:55AM 42.3212 32.2693 124° Southeast  Level Estimated
03:56AM 42.2440 32.4204 125° Southeast  Level Estimated
03:57AM 42.1666 32.5711 125° Southeast  Level Estimated
03:58AM 42.0890 32.7214 125° Southeast  Level Estimated
03:59AM 42.0111 32.8714 125° Southeast  Level Estimated
04:00AM 41.9331 33.0210 125° Southeast  Level Estimated
04:01AM 41.8549 33.1702 125° Southeast  Level Estimated
04:02AM 41.7765 33.3191 125° Southeast  Level Estimated
04:03AM 41.6979 33.4676 125° Southeast  Level Estimated
04:04AM 41.6191 33.6157 125° Southeast  Level Estimated
04:05AM 41.5401 33.7635 125° Southeast  Level Estimated
04:06AM 41.4610 33.9109 126° Southeast  Level Estimated
04:07AM 41.3816 34.0580 126° Southeast  Level Estimated
04:08AM 41.3021 34.2047 126° Southeast  Level Estimated
04:09AM 41.2224 34.3511 126° Southeast  Level Estimated
04:10AM 41.1425 34.4970 126° Southeast  Level Estimated
04:11AM 41.0623 34.6428 126° Southeast  Level Estimated
04:12AM 40.9819 34.7883 126° Southeast  Level Estimated
04:13AM 40.9013 34.9334 126° Southeast  Level Estimated
04:14AM 40.8206 35.0782 126° Southeast  Level Estimated
04:15AM 40.7396 35.2226 126° Southeast  Level Estimated
04:16AM 40.6585 35.3666 127° Southeast  Level Estimated
04:17AM 40.5773 35.5103 127° Southeast  Level Estimated
04:18AM 40.4958 35.6537 127° Southeast  Level Estimated
04:19AM 40.4142 35.7967 127° Southeast  Level Estimated
04:20AM 40.3323 35.9394 127° Southeast  Level Estimated
04:21AM 40.2504 36.0817 127° Southeast  Level Estimated
04:22AM 40.1682 36.2236 127° Southeast  Level Estimated
04:23AM 40.0859 36.3653 127° Southeast  Level Estimated
04:24AM 40.0033 36.5065 127° Southeast  Level Estimated
04:25AM 39.9207 36.6475 127° Southeast  Level Estimated
04:26AM 39.8378 36.7881 127° Southeast  Level Estimated
04:27AM 39.7548 36.9283 128° Southeast  Level Estimated
04:28AM 39.6716 37.0683 128° Southeast  Level Estimated
04:29AM 39.5883 37.2078 128° Southeast  Level Estimated
04:30AM 39.5047 37.3471 128° Southeast  Level Estimated
04:31AM 39.4211 37.4860 128° Southeast  Level Estimated
04:32AM 39.3372 37.6246 128° Southeast  Level Estimated
04:33AM 39.2532 37.7628 128° Southeast  Level Estimated
04:34AM 39.1690 37.9008 128° Southeast  Level Estimated
04:35AM 39.0847 38.0383 128° Southeast  Level Estimated
04:36AM 39.0002 38.1756 128° Southeast  Level Estimated
04:37AM 38.9155 38.3125 128° Southeast  Level Estimated
04:38AM 38.8307 38.4491 129° Southeast  Level Estimated
04:39AM 38.7457 38.5854 129° Southeast  Level Estimated
04:40AM 38.6606 38.7214 129° Southeast  Level Estimated
04:41AM 38.5753 38.8570 129° Southeast  Level Estimated
04:42AM 38.4898 38.9923 129° Southeast  Level Estimated
04:43AM 38.4042 39.1273 129° Southeast  Level Estimated
04:44AM 38.3185 39.2620 129° Southeast  Level Estimated
04:45AM 38.2325 39.3963 129° Southeast  Level Estimated
04:46AM 38.1465 39.5303 129° Southeast  Level Estimated
04:47AM 38.0602 39.6641 129° Southeast  Level Estimated
04:48AM 37.9739 39.7975 129° Southeast  Level Estimated
04:49AM 37.8874 39.9306 129° Southeast  Level Estimated
04:50AM 37.8007 40.0633 130° Southeast  Level Estimated
04:51AM 37.7139 40.1958 130° Southeast  Level Estimated
04:52AM 37.6269 40.3279 130° Southeast  Level Estimated
04:53AM 37.5398 40.4598 130° Southeast  Level Estimated
04:54AM 37.4525 40.5913 130° Southeast  Level Estimated
04:55AM 37.3651 40.7226 130° Southeast  Level Estimated
04:56AM 37.2776 40.8535 130° Southeast  Level Estimated
04:57AM 37.1899 40.9841 130° Southeast  Level Estimated
04:58AM 37.1020 41.1144 130° Southeast  Level Estimated
04:59AM 37.0141 41.2444 130° Southeast  Level Estimated
05:00AM 36.9259 41.3741 130° Southeast  Level Estimated
05:01AM 36.8377 41.5036 130° Southeast  Level Estimated
05:02AM 36.7493 41.6327 130° Southeast  Level Estimated
05:03AM 36.6607 41.7615 131° Southeast  Level Estimated
05:04AM 36.5721 41.8900 131° Southeast  Level Estimated
05:05AM 36.4832 42.0182 131° Southeast  Level Estimated
05:06AM 36.3943 42.1462 131° Southeast  Level Estimated
05:07AM 36.3052 42.2738 131° Southeast  Level Estimated
05:08AM 36.2159 42.4013 131° Southeast  Level Estimated
05:09AM 36.1264 42.5285 131° Southeast  Level Estimated
05:10AM 36.0369 42.6553 131° Southeast  Level Estimated
05:11AM 35.9473 42.7818 131° Southeast  Level Estimated
05:12AM 35.8575 42.9080 131° Southeast  Level Estimated
05:13AM 35.7676 43.0339 131° Southeast  Level Estimated
05:14AM 35.6776 43.1595 131° Southeast  Level Estimated
05:15AM 35.5874 43.2849 131° Southeast  Level Estimated
05:16AM 35.4972 43.4099 132° Southeast  Level Estimated
05:17AM 35.4067 43.5347 132° Southeast  Level Estimated
05:18AM 35.3162 43.6592 132° Southeast  Level Estimated
05:19AM 35.2255 43.7834 132° Southeast  Level Estimated
05:20AM 35.1348 43.9073 132° Southeast  Level Estimated
05:21AM 35.0438 44.0310 132° Southeast  Level Estimated
05:22AM 34.9528 44.1544 132° Southeast  Level Estimated
05:23AM 34.8616 44.2775 132° Southeast  Level Estimated
05:24AM 34.7703 44.4004 132° Southeast  Level Estimated
05:25AM 34.6789 44.5229 132° Southeast  Level Estimated
05:26AM 34.5874 44.6452 132° Southeast  Level Estimated
05:27AM 34.4957 44.7673 132° Southeast  Level Estimated
05:28AM 34.4039 44.8890 132° Southeast  Level Estimated
05:29AM 34.3120 45.0105 132° Southeast  Level Estimated
05:30AM 34.2200 45.1317 133° Southeast  Level Estimated
05:31AM 34.1278 45.2529 133° Southeast  Level Estimated
05:32AM 34.0354 45.3737 133° Southeast  Level Estimated
05:33AM 33.9429 45.4943 133° Southeast  Level Estimated
05:34AM 33.8503 45.6147 133° Southeast  Level Estimated
05:35AM 33.7575 45.7347 133° Southeast  Level Estimated
05:36AM 33.6647 45.8545 133° Southeast  Level Estimated
05:37AM 33.5717 45.9741 133° Southeast  Level Estimated
05:38AM 33.4786 46.0934 133° Southeast  Level Estimated
05:39AM 33.3855 46.2124 133° Southeast  Level Estimated
05:40AM 33.2922 46.3312 133° Southeast  Level Estimated
05:41AM 33.1987 46.4498 133° Southeast  Level Estimated
05:42AM 33.1052 46.5681 133° Southeast  Level Estimated
05:43AM 33.0116 46.6861 133° Southeast  Level Estimated
05:44AM 32.9178 46.8038 133° Southeast  Level Estimated
05:45AM 32.8240 46.9214 134° Southeast  Level Estimated
05:46AM 32.7300 47.0387 134° Southeast  Level Estimated
05:47AM 32.6359 47.1557 134° Southeast  Level Estimated
05:48AM 32.5417 47.2725 134° Southeast  Level Estimated
05:49AM 32.4474 47.3890 134° Southeast  Level Estimated
05:50AM 32.3530 47.5053 134° Southeast  Level Estimated
05:51AM 32.2585 47.6214 134° Southeast  Level Estimated
05:52AM 32.1639 47.7372 134° Southeast  Level Estimated
05:53AM 32.0692 47.8528 134° Southeast  Level Estimated
05:54AM 31.9743 47.9681 134° Southeast  Level Estimated
05:55AM 31.8794 48.0832 134° Southeast  Level Estimated
05:56AM 31.7844 48.1981 134° Southeast  Level Estimated
05:57AM 31.6891 48.3128 134° Southeast  Level Estimated
05:58AM 31.5938 48.4274 134° Southeast  Level Estimated
05:59AM 31.4983 48.5417 134° Southeast  Level Estimated
06:00AM 31.4027 48.6557 134° Southeast  Level Estimated
06:01AM 31.3071 48.7696 135° Southeast  Level Estimated
06:02AM 31.2113 48.8832 135° Southeast  Level Estimated
06:03AM 31.1154 48.9966 135° Southeast  Level Estimated
06:04AM 31.0196 49.1096 135° Southeast  Level Estimated
06:05AM 30.9237 49.2223 135° Southeast  Level Estimated
06:06AM 30.8276 49.3349 135° Southeast  Level Estimated
06:07AM 30.7315 49.4472 135° Southeast  Level Estimated
06:08AM 30.6353 49.5593 135° Southeast  Level Estimated
06:09AM 30.5389 49.6712 135° Southeast  Level Estimated
06:10AM 30.4425 49.7828 135° Southeast  Level Estimated
06:11AM 30.3460 49.8942 135° Southeast  Level Estimated
06:12AM 30.2494 50.0055 135° Southeast  Level Estimated
06:13AM 30.1527 50.1165 135° Southeast  Level Estimated
06:14AM 30.0559 50.2272 135° Southeast  Level Estimated
06:15AM 29.9590 50.3378 135° Southeast  Level Estimated
06:16AM 29.8620 50.4481 135° Southeast  Level Estimated
06:17AM 29.7649 50.5583 135° Southeast  Level Estimated
06:18AM 29.6678 50.6682 135° Southeast  Level Estimated
06:19AM 29.5705 50.7779 136° Southeast  Level Estimated
06:20AM 29.4732 50.8874 136° Southeast  Level Estimated
06:21AM 29.3757 50.9967 136° Southeast  Level Estimated
06:22AM 29.2782 51.1057 136° Southeast  Level Estimated
06:23AM 29.1806 51.2146 136° Southeast  Level Estimated
06:24AM 29.0829 51.3232 136° Southeast  Level Estimated
06:25AM 28.9851 51.4317 136° Southeast  Level Estimated
06:26AM 28.8871 51.5401 136° Southeast  Level Estimated
06:27AM 28.7890 51.6483 136° Southeast  Level Estimated
06:28AM 28.6908 51.7563 136° Southeast  Level Estimated
06:29AM 28.5927 51.8639 136° Southeast  Level Estimated
06:30AM 28.4967 51.9739 135° Southeast  Level FlightAware Approximate
06:31AM 28.4006 52.0837 135° Southeast  Level FlightAware Approximate
06:32AM 28.3044 52.1932 135° Southeast  Level FlightAware Approximate
06:33AM 28.2081 52.3026 135° Southeast  Level FlightAware Approximate
06:34AM 28.1117 52.4118 135° Southeast  Level FlightAware Approximate
06:35AM 28.0153 52.5208 135° Southeast  Level FlightAware Approximate
06:36AM 27.9187 52.6296 135° Southeast  Level FlightAware Approximate
06:37AM 27.8221 52.7382 135° Southeast  Level FlightAware Approximate
06:38AM 27.7254 52.8466 135° Southeast  Level FlightAware Approximate
06:39AM 27.6285 52.9550 135° Southeast  Level FlightAware Approximate
06:40AM 27.5315 53.0631 135° Southeast  Level FlightAware Approximate
06:41AM 27.4344 53.1711 135° Southeast  Level FlightAware Approximate
06:42AM 27.3372 53.2789 135° Southeast  Level FlightAware Approximate
06:43AM 27.2401 53.3864 135° Southeast  Level FlightAware Approximate
06:44AM 27.1429 53.4936 136° Southeast  Level FlightAware Approximate
06:45AM 27.0454 53.6008 136° Southeast  Level FlightAware Approximate
06:46AM 26.9479 53.7079 136° Southeast  Level FlightAware Approximate
06:47AM 26.8503 53.8147 136° Southeast  Level FlightAware Approximate
06:48AM 26.7428 53.9158 141° Southeast  Level FlightAware Approximate
06:49AM 26.6374 54.0126 138° Southeast  Level FlightAware Approximate
06:50AM 26.5356 54.1145 138° Southeast  Level FlightAware Approximate
06:51AM 26.4338 54.2162 138° Southeast  Level FlightAware Approximate
06:52AM 26.3321 54.3180 138° Southeast  Level FlightAware Approximate
06:53AM 26.2295 54.4184 141° Southeast  Level FlightAware Approximate
06:54AM 26.1233 54.5141 141° Southeast  Level FlightAware Approximate
06:55AM 26.0200 54.6135 138° Southeast  Level FlightAware Approximate
06:56AM 25.9184 54.7150 138° Southeast  Level FlightAware Approximate
06:57AM 25.8150 54.8140 142° Southeast  Level FlightAware Approximate
06:58AM 25.7082 54.9085 138° Southeast  Level FlightAware Approximate
06:59AM 25.6068 55.0099 138° Southeast  Level FlightAware Approximate
07:00AM 25.5054 55.1113 138° Southeast  Level FlightAware Approximate
07:01AM 25.4006 55.2079 146° Southeast  Level FlightAware Approximate
07:02AM 25.2957 55.3042 138° Southeast  Level FlightAware Approximate
07:03AM 25.2500 55.3500 138° Southeast  Level FlightAware Approximate
07:04AM 25.2550 55.3643 138° Southeast  Level Estimated
07:05AM 25.2550 55.3643 138° Southeast  Level Estimated
07:06AM 25.2550 55.3643 138° Southeast  Level Estimated
07:07AM 25.2550 55.3643 138° Southeast  Level Estimated
07:08AM 25.2550 55.3643 138° Southeast  Level Estimated
07:09AM 25.2550 55.3643 138° Southeast  Level Estimated
07:10AM 25.2550 55.3643 138° Southeast  Level Estimated
07:11AM 25.2550 55.3643 138° Southeast  Level Estimated
07:12AM 25.2550 55.3643 138° Southeast  Level Estimated
07:13AM 25.2550 55.3643 138° Southeast  Level Estimated
07:14AM 25.2550 55.3643 138° Southeast  Level Estimated
07:15AM 25.2550 55.3643 138° Southeast  Level Estimated
07:16AM 25.2550 55.3643 138° Southeast  Level Estimated
07:17AM 25.2550 55.3643 138° Southeast  Level Estimated
07:18AM 25.2550 55.3643 138° Southeast  Level Estimated
07:19AM 25.2550 55.3643 138° Southeast  Level Estimated
07:20AM 25.2550 55.3643 138° Southeast  Level Estimated

Login

Don't have an account? Register now (free) for customized features, flight alerts, and more!